QPF
0.00 0.00 0.00 0.00 0.00 0.00 0.00 0.00 0.00 0.00 0.00 0.00 0.00 0.00 0.00 0.00 0.00 0.01 0.00 0.00 0.00 0.00 0.00 0.00 0.00 0.00 0.00 0.00 0.00 0.00 0.00 0.00 0.00 0.00 0.00 0.00 0.00 0.02 0.01 0.00 0.02 0.03 0.09 0.02 0.00 0.00 0.00 0.00 0.00
0.00 0.00 0.00 0.00 0.00 0.00 0.00 0.00 0.00 0.00 0.00 0.00 0.00 0.00 0.00 0.00 0.00 0.00 0.00 0.00 0.00 0.00 0.00 0.00 0.00 0.00 0.00 0.01 0.00 0.00 0.00 0.00 0.00 0.00 0.00 0.00 0.00 0.05 0.00 0.00 0.04 0.04 0.10 0.02 0.00 0.00 0.00 0.00 0.00
0.00 0.00 0.00 0.00 0.00 0.00 0.00 0.00 0.00 0.00 0.00 0.00 0.00 0.00 0.00 0.00 0.00 0.00 0.00 0.00 0.00 0.00 0.00 0.00 0.00 0.01 0.00 0.01 0.00 0.00 0.00 0.00 0.00 0.00 0.00 0.00 0.00 0.01 0.00 0.00 0.04 0.07 0.05 0.01 0.00 0.00 0.00 0.00 0.00
0.00 0.00 0.00 0.00 0.00 0.00 0.00 0.00 0.00 0.00 0.00 0.00 0.00 0.00 0.00 0.00 0.00 0.00 0.00 0.00 0.00 0.00 0.00 0.00 0.00 0.01 0.00 0.00 0.00 0.00 0.00 0.00 0.00 0.00 0.00 0.00 0.00 0.00 0.00 0.00 0.04 0.14 0.06 0.01 0.00 0.00 0.00 0.00 0.00
0.00 0.00 0.00 0.00 0.00 0.00 0.00 0.00 0.00 0.00 0.00 0.00 0.00 0.00 0.00 0.00 0.00 0.00 0.00 0.00 0.00 0.00 0.00 0.00 0.00 0.00 0.00 0.00 0.01 0.00 0.00 0.00 0.00 0.00 0.00 0.00 0.00 0.00 0.00 0.00 0.04 0.11 0.04 0.02 0.00 0.00 0.00 0.00 0.00
0.00 0.00 0.00 0.00 0.00 0.00 0.00 0.00 0.00 0.00 0.00 0.00 0.00 0.00 0.00 0.00 0.00 0.00 0.00 0.00 0.00 0.00 0.00 0.00 0.00 0.00 0.00 0.00 0.04 0.01 0.00 0.00 0.00 0.00 0.00 0.00 0.00 0.00 0.00 0.00 0.02 0.05 0.01 0.01 0.00 0.00 0.00 0.00 0.00
0.00 0.00 0.00 0.00 0.00 0.00 0.00 0.00 0.00 0.00 0.00 0.00 0.00 0.00 0.00 0.00 0.00 0.00 0.00 0.00 0.00 0.00 0.00 0.00 0.00 0.00 0.01 0.01 0.05 0.04 0.00 0.00 0.00 0.00 0.00 0.00 0.00 0.00 0.00 0.01 0.04 0.05 0.01 0.01 0.00 0.00 0.00 0.00 0.00
0.00 0.00 0.00 0.00 0.00 0.00 0.00 0.00 0.00 0.00 0.00 0.00 0.00 0.00 0.00 0.00 0.00 0.00 0.00 0.00 0.00 0.00 0.00 0.00 0.00 0.00 0.00 0.00 0.01 0.05 0.01 0.00 0.00 0.00 0.00 0.00 0.01 0.02 0.03 0.02 0.04 0.06 0.00 0.00 0.02 0.00 0.00 0.00 0.00
0.00 0.00 0.00 0.00 0.00 0.00 0.00 0.00 0.00 0.00 0.00 0.00 0.00 0.00 0.00 0.00 0.00 0.00 0.00 0.00 0.00 0.00 0.00 0.00 0.02 0.02 0.03 0.02 0.03 0.03 0.01 0.01 0.00 0.00 0.00 0.00 0.00 0.00 0.02 0.01 0.07 0.04 0.01 0.01 0.03 0.00 0.00 0.00 0.00
0.00 0.00 0.00 0.00 0.00 0.00 0.00 0.00 0.00 0.00 0.00 0.00 0.00 0.00 0.00 0.00 0.00 0.00 0.00 0.00 0.00 0.00 0.00 0.00 0.01 0.03 0.05 0.04 0.07 0.05 0.04 0.03 0.04 0.03 0.03 0.00 0.01 0.01 0.02 0.04 0.05 0.07 0.05 0.06 0.05 0.02 0.00 0.00 0.00
0.00 0.00 0.00 0.00 0.00 0.00 0.00 0.00 0.00 0.00 0.00 0.00 0.00 0.00 0.00 0.00 0.00 0.00 0.00 0.00 0.00 0.00 0.00 0.00 0.00 0.02 0.04 0.05 0.06 0.06 0.07 0.08 0.07 0.06 0.07 0.02 0.00 0.01 0.00 0.03 0.00 0.02 0.04 0.05 0.07 0.02 0.00 0.00 0.00
0.00 0.00 0.00 0.00 0.00 0.00 0.00 0.00 0.00 0.00 0.00 0.00 0.00 0.00 0.00 0.00 0.00 0.00 0.00 0.00 0.00 0.00 0.00 0.00 0.00 0.00 0.01 0.03 0.01 0.02 0.03 0.05 0.05 0.05 0.06 0.03 0.03 0.03 0.03 0.02 0.04 0.06 0.02 0.02 0.05 0.04 0.03 0.00 0.00
0.00 0.00 0.00 0.00 0.00 0.00 0.00 0.00 0.00 0.00 0.00 0.00 0.00 0.00 0.00 0.00 0.00 0.00 0.00 0.00 0.00 0.00 0.00 0.00 0.00 0.00 0.00 0.00 0.00 0.00 0.00 0.00 0.00 0.02 0.02 0.03 0.04 0.04 0.03 0.03 0.02 0.04 0.05 0.06 0.07 0.09 0.13 0.00 0.00
0.00 0.00 0.00 0.00 0.00 0.00 0.00 0.00 0.00 0.00 0.00 0.00 0.00 0.00 0.00 0.00 0.00 0.00 0.00 0.00 0.00 0.00 0.00 0.00 0.00 0.00 0.00 0.00 0.00 0.00 0.00 0.00 0.00 0.00 0.00 0.01 0.02 0.02 0.02 0.02 0.02 0.04 0.07 0.07 0.08 0.10 0.10 0.00 0.00
0.00 0.00 0.00 0.00 0.00 0.00 0.00 0.00 0.00 0.00 0.00 0.00 0.00 0.00 0.00 0.00 0.00 0.00 0.00 0.00 0.00 0.00 0.00 0.00 0.00 0.00 0.00 0.00 0.00 0.00 0.00 0.00 0.00 0.00 0.00 0.00 0.00 0.00 0.00 0.01 0.02 0.01 0.07 0.13 0.10 0.11 0.06 0.00 0.01
0.00 0.00 0.00 0.00 0.00 0.00 0.00 0.00 0.00 0.00 0.00 0.00 0.00 0.00 0.00 0.00 0.00 0.00 0.00 0.00 0.00 0.00 0.00 0.00 0.00 0.00 0.00 0.00 0.00 0.00 0.00 0.00 0.00 0.00 0.00 0.00 0.00 0.00 0.00 0.01 0.03 0.04 0.08 0.05 0.04 0.02 0.02 0.01 0.02
0.00 0.00 0.00 0.00 0.00 0.00 0.00 0.00 0.00 0.00 0.00 0.00 0.00 0.00 0.00 0.00 0.00 0.00 0.00 0.00 0.00 0.00 0.00 0.00 0.00 0.00 0.00 0.00 0.00 0.00 0.00 0.00 0.00 0.00 0.00 0.00 0.00 0.00 0.00 0.00 0.04 0.01 0.02 0.03 0.03 0.05 0.03 0.02 0.02
0.00 0.00 0.00 0.00 0.00 0.00 0.00 0.00 0.00 0.00 0.00 0.00 0.00 0.00 0.00 0.00 0.00 0.00 0.00 0.00 0.00 0.00 0.00 0.00 0.00 0.00 0.00 0.00 0.00 0.00 0.00 0.00 0.00 0.00 0.00 0.00 0.00 0.00 0.00 0.00 0.01 0.01 0.02 0.04 0.06 0.08 0.05 0.04 0.03
0.00 0.00 0.00 0.00 0.00 0.00 0.00 0.00 0.00 0.00 0.00 0.00 0.00 0.00 0.00 0.00 0.00 0.00 0.00 0.00 0.00 0.00 0.00 0.00 0.00 0.00 0.00 0.00 0.00 0.00 0.00 0.00 0.00 0.00 0.00 0.00 0.00 0.00 0.00 0.00 0.00 0.01 0.02 0.04 0.06 0.09 0.07 0.03 0.02
0.00 0.00 0.00 0.00 0.00 0.00 0.00 0.00 0.00 0.00 0.00 0.00 0.00 0.00 0.00 0.00 0.00 0.00 0.00 0.00 0.00 0.00 0.00 0.00 0.00 0.00 0.00 0.00 0.00 0.00 0.00 0.00 0.00 0.00 0.00 0.00 0.00 0.00 0.00 0.00 0.01 0.04 0.03 0.03 0.02 0.05 0.03 0.04 0.09
0.00 0.00 0.00 0.00 0.00 0.00 0.00 0.00 0.00 0.00 0.00 0.00 0.00 0.00 0.00 0.00 0.00 0.00 0.00 0.00 0.00 0.00 0.00 0.00 0.00 0.00 0.00 0.00 0.00 0.00 0.00 0.00 0.00 0.00 0.00 0.00 0.00 0.00 0.00 0.00 0.01 0.07 0.04 0.03 0.19 0.23 0.22 0.13 0.09
0.00 0.00 0.00 0.00 0.00 0.00 0.00 0.00 0.00 0.00 0.00 0.00 0.00 0.00 0.00 0.00 0.00 0.00 0.00 0.00 0.00 0.00 0.00 0.00 0.00 0.00 0.00 0.00 0.00 0.00 0.00 0.00 0.00 0.00 0.00 0.00 0.00 0.00 0.00 0.00 0.01 0.05 0.07 0.07 0.08 0.24 0.12 0.13 0.03
0.00 0.00 0.00 0.00 0.00 0.00 0.00 0.00 0.00 0.00 0.00 0.00 0.00 0.00 0.00 0.00 0.00 0.00 0.00 0.00 0.00 0.00 0.00 0.00 0.00 0.00 0.00 0.00 0.00 0.00 0.00 0.00 0.00 0.00 0.00 0.01 0.01 0.01 0.00 0.00 0.01 0.03 0.07 0.07 0.07 0.05 0.02 0.04 0.06
0.00 0.00 0.00 0.00 0.00 0.00 0.00 0.00 0.00 0.00 0.00 0.00 0.00 0.00 0.00 0.00 0.00 0.00 0.00 0.00 0.00 0.00 0.00 0.00 0.00 0.00 0.00 0.00 0.00 0.00 0.00 0.00 0.00 0.00 0.00 0.00 0.00 0.00 0.00 0.00 0.01 0.00 0.04 0.05 0.02 0.03 0.01 0.03 0.10
0.00 0.00 0.00 0.00 0.00 0.00 0.00 0.00 0.00 0.00 0.00 0.00 0.00 0.00 0.00 0.00 0.00 0.00 0.00 0.00 0.00 0.00 0.00 0.00 0.00 0.00 0.00 0.00 0.00 0.00 0.00 0.00 0.00 0.00 0.00 0.00 0.00 0.00 0.00 0.00 0.00 0.00 0.01 0.02 0.00 0.01 0.01 0.02 0.03
0.00 0.00 0.00 0.00 0.00 0.00 0.00 0.00 0.00 0.00 0.00 0.00 0.00 0.00 0.00 0.00 0.00 0.00 0.00 0.00 0.00 0.00 0.00 0.00 0.00 0.00 0.00 0.00 0.00 0.00 0.00 0.00 0.00 0.00 0.00 0.00 0.00 0.00 0.00 0.00 0.00 0.00 0.01 0.08 0.04 0.01 0.01 0.01 0.00
0.00 0.00 0.00 0.01 0.01 0.01 0.00 0.00 0.00 0.00 0.00 0.00 0.00 0.00 0.00 0.00 0.00 0.00 0.00 0.00 0.00 0.00 0.00 0.00 0.00 0.00 0.00 0.00 0.00 0.00 0.00 0.00 0.00 0.00 0.00 0.00 0.00 0.00 0.00 0.00 0.00 0.00 0.01 0.05 0.10 0.02 0.03 0.03 0.00
0.00 0.00 0.02 0.03 0.05 0.02 0.00 0.00 0.00 0.00 0.00 0.00 0.00 0.00 0.00 0.00 0.00 0.00 0.00 0.00 0.00 0.00 0.00 0.00 0.00 0.00 0.00 0.00 0.00 0.00 0.00 0.00 0.00 0.00 0.00 0.00 0.00 0.00 0.00 0.00 0.00 0.00 0.00 0.01 0.05 0.03 0.02 0.04 0.03
0.01 0.02 0.03 0.04 0.02 0.01 0.01 0.00 0.00 0.00 0.00 0.00 0.00 0.00 0.00 0.00 0.00 0.00 0.00 0.00 0.00 0.00 0.00 0.00 0.00 0.00 0.00 0.00 0.00 0.00 0.00 0.00 0.00 0.00 0.00 0.00 0.00 0.00 0.00 0.00 0.00 0.00 0.00 0.01 0.01 0.01 0.01 0.04 0.07
0.01 0.07 0.17 0.22 0.07 0.01 0.01 0.00 0.00 0.00 0.00 0.00 0.00 0.00 0.00 0.00 0.00 0.00 0.00 0.00 0.00 0.00 0.00 0.00 0.00 0.00 0.00 0.00 0.00 0.00 0.00 0.00 0.00 0.00 0.00 0.00 0.00 0.00 0.00 0.00 0.00 0.00 0.00 0.02 0.01 0.00 0.02 0.01 0.06
MSLP
1010.11 1009.20 1008.70 1008.39 1007.72 1006.14 1004.02 1003.02 1002.62 1002.35 1002.16 1002.07 1002.34 1002.11 1001.95 1002.41 1002.99 1004.97 1006.78 1006.65 1007.04 1007.87 1008.65 1010.04 1010.46 1010.79 1011.16 1011.39 1011.63 1011.85 1012.03 1012.18 1012.34 1012.42 1012.53 1012.69 1012.69 1012.92 1013.00 1013.05 1013.15 1013.26 1013.42 1013.34 1013.37 1013.47 1013.53 1013.52 1013.52
1009.53 1009.23 1008.76 1007.70 1006.84 1004.74 1002.90 1002.72 1002.88 1002.49 1002.44 1002.91 1002.97 1002.96 1002.76 1003.28 1004.38 1005.73 1006.44 1006.93 1007.24 1007.79 1008.56 1009.59 1010.55 1010.82 1011.09 1011.40 1011.70 1011.96 1012.19 1012.34 1012.37 1012.48 1012.58 1012.76 1012.84 1012.98 1013.06 1013.16 1013.30 1013.43 1013.63 1013.69 1013.72 1013.74 1013.82 1013.93 1013.92
1009.71 1008.96 1008.08 1007.24 1005.62 1004.38 1003.19 1003.41 1002.87 1002.99 1003.38 1003.25 1003.31 1003.71 1003.36 1004.26 1004.87 1005.55 1006.07 1006.95 1007.33 1007.83 1008.39 1009.19 1010.54 1010.97 1011.14 1011.47 1011.65 1012.07 1012.26 1012.45 1012.51 1012.57 1012.67 1012.77 1012.90 1013.03 1013.15 1013.19 1013.42 1013.69 1013.83 1013.94 1014.02 1014.07 1014.11 1014.20 1014.31
1008.98 1008.47 1007.46 1006.26 1004.80 1004.57 1004.23 1003.54 1003.94 1003.68 1003.69 1004.11 1003.69 1003.63 1004.68 1005.34 1005.30 1005.46 1006.61 1006.94 1007.33 1007.91 1008.26 1009.80 1010.54 1010.98 1011.24 1011.48 1011.84 1012.09 1012.40 1012.48 1012.53 1012.72 1012.72 1012.94 1012.95 1013.10 1013.16 1013.36 1013.55 1013.87 1014.01 1014.07 1014.30 1014.45 1014.41 1014.49 1014.60
1008.85 1007.54 1006.20 1005.05 1004.06 1003.60 1003.95 1004.31 1004.45 1003.85 1003.57 1003.91 1004.13 1003.86 1004.67 1005.82 1006.15 1006.38 1006.57 1006.95 1007.27 1007.72 1008.13 1009.66 1010.51 1010.91 1011.20 1011.52 1011.80 1012.09 1012.43 1012.62 1012.71 1012.75 1012.81 1013.05 1013.06 1013.19 1013.24 1013.57 1013.80 1013.98 1014.11 1014.32 1014.49 1014.63 1014.71 1014.87 1014.92
1008.07 1007.20 1005.59 1004.26 1003.38 1003.24 1003.61 1003.65 1003.94 1004.09 1004.10 1004.17 1004.58 1004.36 1005.04 1006.18 1006.53 1006.66 1006.89 1007.09 1007.24 1007.71 1008.18 1009.24 1010.55 1010.98 1011.19 1011.57 1011.89 1012.12 1012.40 1012.69 1012.88 1012.87 1012.89 1012.99 1013.09 1013.27 1013.54 1013.72 1013.83 1014.10 1014.18 1014.36 1014.62 1014.75 1014.86 1015.11 1015.30
1008.06 1006.92 1005.52 1004.38 1003.85 1003.60 1003.48 1003.69 1003.64 1003.64 1003.59 1003.62 1004.05 1003.98 1004.56 1006.00 1006.41 1006.63 1006.83 1007.08 1007.34 1007.78 1008.50 1009.14 1010.20 1010.84 1011.31 1011.52 1011.83 1012.20 1012.33 1012.63 1012.95 1012.93 1012.99 1013.12 1013.22 1013.43 1013.66 1013.89 1014.06 1014.20 1014.45 1014.54 1014.77 1014.95 1015.08 1015.30 1015.55
1008.15 1007.30 1005.65 1004.82 1004.18 1003.68 1003.81 1004.19 1003.87 1003.57 1003.38 1003.98 1004.34 1003.96 1004.24 1005.35 1006.56 1006.72 1006.90 1007.39 1007.69 1008.25 1008.66 1009.06 1009.73 1010.36 1010.86 1011.40 1011.87 1012.17 1012.36 1012.62 1012.85 1012.96 1013.12 1013.24 1013.36 1013.63 1013.77 1013.93 1014.15 1014.30 1014.56 1014.75 1014.91 1015.08 1015.26 1015.57 1015.82
1008.51 1007.22 1005.41 1004.64 1004.48 1004.16 1004.49 1004.56 1004.37 1004.23 1003.84 1004.15 1004.35 1004.41 1005.01 1005.68 1006.61 1006.82 1007.13 1007.59 1008.10 1008.57 1008.85 1009.28 1009.97 1010.24 1010.55 1010.94 1011.42 1012.12 1012.38 1012.59 1012.79 1012.94 1013.19 1013.35 1012.90 1013.19 1013.71 1013.74 1014.06 1014.37 1014.63 1014.89 1015.07 1015.25 1015.50 1015.86 1016.07
1008.09 1006.77 1005.38 1004.94 1004.94 1005.00 1004.83 1004.97 1004.25 1004.70 1004.20 1003.90 1004.40 1004.69 1005.57 1005.92 1006.26 1006.48 1006.92 1007.19 1007.91 1008.47 1008.74 1008.80 1009.29 1010.17 1010.53 1010.75 1011.24 1011.62 1011.85 1012.20 1012.42 1012.45 1012.68 1012.76 1012.27 1012.63 1012.85 1013.38 1014.04 1014.51 1014.74 1015.00 1015.21 1015.35 1015.66 1015.86 1015.77
1007.24 1006.66 1005.65 1005.63 1005.85 1005.68 1005.43 1005.07 1004.98 1004.60 1003.98 1003.72 1003.84 1004.10 1004.92 1005.55 1005.74 1005.95 1006.27 1006.80 1007.21 1008.05 1008.60 1008.80 1009.31 1009.75 1010.56 1010.92 1011.37 1011.69 1012.01 1012.10 1012.19 1012.25 1012.56 1012.52 1012.34 1012.70 1012.70 1013.02 1013.71 1014.25 1014.81 1015.01 1015.42 1015.57 1015.44 1015.33 1015.17
1007.35 1006.73 1006.43 1006.14 1006.11 1006.17 1005.72 1005.33 1004.79 1004.72 1004.27 1003.74 1004.00 1004.14 1004.24 1004.88 1005.01 1005.39 1005.55 1005.86 1006.51 1007.28 1008.17 1008.64 1009.15 1009.56 1009.92 1010.53 1010.79 1011.02 1011.50 1012.00 1012.14 1012.29 1012.48 1012.56 1012.49 1012.56 1012.74 1013.18 1013.54 1013.72 1014.31 1014.65 1015.06 1015.14 1015.16 1015.08 1014.92
1006.98 1006.64 1006.27 1006.23 1006.43 1006.33 1006.08 1005.48 1005.10 1004.60 1004.22 1004.19 1004.21 1004.54 1004.69 1004.42 1004.49 1004.67 1005.11 1005.49 1006.04 1006.48 1007.48 1008.24 1008.89 1009.32 1009.64 1010.18 1010.17 1010.27 1010.47 1010.87 1011.08 1011.81 1012.27 1012.54 1012.90 1013.18 1013.20 1013.31 1013.33 1013.86 1014.16 1014.53 1014.98 1015.25 1015.27 1015.05 1015.17
1006.48 1006.73 1006.34 1006.00 1005.92 1006.02 1005.75 1005.21 1004.98 1003.98 1003.96 1003.97 1003.82 1003.84 1004.15 1004.22 1004.24 1004.32 1004.61 1005.05 1005.61 1006.23 1006.92 1007.93 1008.51 1009.10 1009.41 1009.66 1010.04 1010.35 1010.58 1010.64 1010.94 1011.13 1011.49 1012.15 1012.60 1013.00 1013.23 1013.53 1013.58 1013.71 1014.12 1014.49 1014.92 1015.13 1015.47 1015.05 1015.27
1007.20 1006.84 1005.95 1005.40 1005.21 1005.33 1005.35 1004.66 1003.77 1003.44 1003.18 1003.05 1003.11 1003.15 1003.27 1003.54 1003.81 1003.90 1004.10 1004.76 1005.18 1005.80 1006.52 1007.47 1008.07 1008.75 1009.36 1009.71 1010.04 1010.76 1010.98 1011.28 1011.25 1011.38 1011.62 1011.79 1012.15 1012.56 1012.70 1013.23 1013.41 1013.62 1013.86 1014.54 1014.82 1014.98 1015.26 1015.12 1015.79
1007.15 1006.22 1005.11 1004.26 1004.80 1004.85 1005.66 1003.76 1002.42 1002.57 1002.35 1002.32 1002.35 1002.45 1002.55 1002.76 1003.12 1003.53 1003.77 1004.30 1004.95 1005.33 1006.04 1007.33 1007.99 1008.63 1009.30 1009.74 1010.15 1010.68 1010.94 1011.42 1011.66 1011.79 1012.46 1012.68 1012.43 1012.87 1012.68 1013.00 1013.37 1013.81 1014.12 1014.60 1015.07 1015.44 1015.69 1016.14 1016.71
1006.45 1005.28 1004.42 1003.86 1004.02 1004.87 1005.25 1003.77 1002.81 1003.20 1002.96 1002.62 1002.35 1002.06 1001.96 1001.98 1002.42 1002.93 1003.35 1004.00 1004.60 1005.14 1005.87 1007.07 1007.87 1008.40 1009.03 1009.62 1010.43 1011.20 1011.07 1011.29 1011.37 1011.33 1012.06 1012.53 1012.58 1012.74 1013.31 1013.38 1013.49 1014.10 1014.68 1014.99 1015.34 1015.71 1016.09 1016.70 1017.42
1005.31 1004.40 1003.90 1003.90 1004.05 1004.63 1004.56 1003.86 1003.49 1003.10 1002.79 1002.56 1002.08 1001.79 1001.33 1001.42 1001.66 1002.34 1002.99 1003.73 1004.58 1005.45 1006.07 1006.91 1007.78 1008.32 1008.86 1009.52 1010.19 1011.21 1011.40 1011.53 1011.62 1012.04 1012.48 1012.45 1012.22 1012.56 1013.01 1013.71 1013.64 1014.10 1014.89 1015.26 1015.66 1016.02 1016.62 1017.20 1017.74
1005.84 1005.49 1004.78 1004.70 1004.41 1004.19 1004.14 1003.70 1003.33 1002.95 1002.43 1001.96 1001.65 1001.31 1000.93 1000.50 1001.02 1001.65 1002.48 1003.31 1004.58 1005.47 1006.16 1006.92 1007.60 1008.03 1008.82 1009.32 1009.68 1010.86 1011.28 1011.49 1011.71 1012.19 1012.43 1012.17 1012.36 1012.50 1012.98 1013.60 1013.87 1014.12 1014.77 1015.14 1015.61 1016.32 1016.91 1017.63 1018.06
1006.00 1005.57 1004.96 1004.72 1004.53 1004.20 1003.98 1003.16 1002.90 1002.35 1001.71 1001.21 1000.79 1000.57 1000.33 1000.14 1000.11 1000.78 1001.74 1003.03 1004.25 1005.19 1006.12 1006.85 1007.37 1007.97 1008.71 1009.15 1009.50 1009.79 1010.27 1010.85 1011.19 1011.49 1011.97 1011.97 1012.19 1012.83 1012.94 1013.52 1013.80 1014.26 1014.64 1015.12 1015.72 1016.42 1017.02 1017.82 1018.04
1006.20 1005.87 1005.39 1005.08 1004.83 1004.34 1003.78 1002.43 1001.65 1000.41 1000.16 1000.18 999.95 999.91 999.82 999.79 999.74 1000.01 1001.11 1003.17 1004.39 1004.85 1005.81 1006.65 1007.31 1007.94 1008.58 1009.22 1009.73 1010.39 1010.59 1010.89 1011.24 1011.49 1011.97 1011.52 1011.64 1012.40 1012.84 1012.92 1013.72 1014.07 1014.56 1015.05 1015.64 1016.14 1016.96 1017.36 1018.08
1005.71 1005.96 1005.61 1005.42 1005.33 1004.17 1003.41 1001.48 1001.03 1000.19 999.59 999.42 999.24 999.34 999.70 999.99 1000.39 1000.14 1001.34 1003.14 1004.58 1004.90 1005.80 1006.65 1007.26 1007.89 1008.51 1009.22 1009.67 1010.05 1010.22 1010.45 1010.58 1010.98 1011.30 1011.17 1011.29 1011.84 1012.88 1013.26 1013.46 1013.92 1014.42 1014.91 1015.29 1015.82 1016.17 1016.62 1017.79
1005.27 1005.68 1005.64 1005.87 1005.26 1004.51 1003.46 1002.36 1000.39 999.81 999.26 999.28 998.96 1000.17 1000.74 1000.71 1001.14 1001.41 1001.91 1003.52 1004.88 1005.53 1006.26 1006.89 1007.55 1008.12 1008.73 1009.29 1009.61 1009.78 1010.01 1010.09 1010.24 1010.58 1011.01 1011.26 1011.59 1011.83 1012.65 1013.19 1013.19 1013.61 1014.06 1014.56 1015.04 1015.67 1016.18 1016.57 1017.30
1005.57 1005.87 1006.13 1006.09 1005.68 1004.02 1002.72 1002.05 999.92 999.56 998.87 999.34 999.47 1000.25 1001.30 1002.06 1002.13 1002.31 1003.00 1004.23 1005.40 1006.43 1006.66 1007.24 1007.80 1008.30 1008.91 1009.32 1009.68 1009.86 1010.01 1010.22 1010.41 1010.89 1011.29 1011.52 1012.23 1012.48 1012.82 1012.83 1012.88 1013.33 1013.94 1014.48 1014.90 1015.35 1016.04 1016.49 1016.95
1005.62 1005.87 1005.66 1005.29 1004.62 1002.98 1002.29 1001.67 1000.22 999.34 999.94 1000.47 1000.38 1001.06 1001.94 1002.62 1002.77 1003.34 1004.20 1005.08 1005.96 1006.84 1007.30 1007.68 1008.31 1008.55 1008.98 1009.38 1009.68 1009.95 1010.16 1010.33 1010.72 1010.94 1011.55 1012.06 1012.43 1012.70 1012.85 1012.74 1012.90 1013.28 1013.65 1014.08 1014.69 1015.19 1015.79 1016.25 1016.68
1004.59 1005.42 1005.25 1004.17 1003.76 1003.04 1003.16 1001.46 1000.38 999.92 1000.51 1001.22 1001.47 1001.88 1002.67 1003.27 1003.58 1004.23 1005.01 1005.72 1006.34 1007.20 1008.03 1008.25 1008.78 1009.04 1009.35 1009.93 1010.53 1010.70 1010.92 1011.35 1011.47 1011.73 1011.83 1012.08 1012.15 1012.30 1012.59 1012.73 1012.97 1013.26 1013.40 1013.85 1014.42 1014.83 1015.44 1015.95 1016.39
1004.70 1005.03 1005.20 1005.19 1004.59 1003.62 1002.64 1001.32 1000.55 1000.35 1000.74 1001.43 1001.93 1002.58 1003.25 1003.82 1004.46 1005.09 1005.42 1006.12 1006.62 1007.76 1008.48 1008.55 1008.88 1009.34 1009.80 1010.28 1010.85 1011.16 1011.54 1011.47 1011.39 1011.55 1011.77 1011.81 1011.97 1012.34 1012.56 1012.72 1012.90 1013.22 1013.48 1013.59 1014.17 1014.75 1015.22 1015.67 1016.15
1005.88 1005.57 1005.79 1006.18 1005.01 1003.69 1001.86 1000.30 999.53 1000.23 1000.75 1001.75 1002.46 1003.35 1003.82 1004.67 1005.79 1005.64 1005.82 1006.35 1006.86 1007.86 1008.78 1008.98 1009.35 1009.53 1010.05 1010.44 1010.61 1011.13 1011.43 1011.30 1011.39 1011.61 1012.11 1012.40 1012.72 1012.81 1012.73 1012.73 1012.97 1013.34 1013.46 1013.51 1013.86 1014.42 1014.96 1015.48 1015.93
1006.86 1006.29 1006.41 1006.76 1005.56 1003.28 1001.76 999.79 998.59 999.74 1001.07 1002.10 1002.97 1003.87 1004.48 1005.79 1006.18 1005.73 1006.10 1006.59 1007.14 1008.29 1008.99 1009.42 1009.75 1009.91 1010.20 1010.53 1010.96 1011.63 1011.89 1011.91 1011.94 1012.10 1012.60 1012.70 1012.77 1012.96 1013.02 1013.00 1013.06 1013.19 1013.39 1013.68 1013.91 1014.35 1014.85 1015.33 1015.71
1008.99 1009.96 1010.03 1008.35 1006.90 1004.57 1002.98 1000.61 999.94 1000.81 1002.36 1003.35 1003.81 1004.56 1005.10 1006.30 1006.03 1006.17 1006.37 1006.85 1007.54 1008.37 1008.89 1009.31 1009.67 1009.87 1010.42 1010.90 1011.44 1011.98 1012.33 1012.46 1012.52 1012.71 1012.94 1013.00 1013.09 1013.19 1013.26 1013.23 1013.26 1013.30 1013.46 1013.54 1013.83 1014.41 1014.74 1015.35 1015.86
Thickness
5761 5770 5776 5767 5744 5752 5758 5771 5791 5783 5787 5808 5809 5804 5802 5804 5790 5766 5796 5803 5802 5794 5788 5778 5775 5773 5770 5768 5766 5765 5764 5763 5761 5761 5760 5758 5759 5757 5756 5755 5754 5753 5751 5752 5752 5751 5750 5750 5749
5765 5766 5766 5760 5738 5744 5766 5785 5772 5787 5798 5801 5800 5798 5794 5782 5797 5787 5788 5797 5797 5791 5785 5778 5771 5769 5767 5765 5764 5763 5761 5760 5760 5760 5759 5757 5756 5754 5754 5753 5751 5749 5747 5747 5747 5747 5746 5745 5745
5761 5767 5751 5742 5750 5744 5758 5772 5781 5788 5792 5791 5788 5794 5793 5779 5792 5791 5800 5795 5792 5787 5783 5777 5767 5764 5764 5762 5762 5759 5758 5758 5757 5757 5756 5755 5754 5753 5751 5750 5748 5745 5744 5743 5742 5742 5742 5741 5740
5757 5757 5758 5740 5745 5754 5757 5774 5774 5776 5784 5784 5788 5776 5786 5791 5789 5798 5794 5792 5787 5782 5780 5769 5765 5762 5761 5760 5757 5757 5755 5756 5755 5753 5753 5751 5752 5750 5750 5748 5745 5741 5741 5741 5738 5737 5738 5737 5735
5755 5754 5741 5745 5755 5769 5770 5769 5770 5771 5779 5778 5780 5772 5772 5781 5788 5788 5788 5787 5782 5780 5778 5767 5761 5760 5759 5757 5756 5754 5751 5751 5751 5751 5750 5748 5749 5748 5747 5743 5741 5739 5738 5736 5735 5733 5733 5731 5730
5739 5749 5737 5741 5759 5770 5770 5775 5772 5767 5771 5772 5765 5767 5766 5777 5776 5779 5782 5780 5782 5777 5775 5768 5758 5755 5755 5753 5752 5750 5749 5747 5746 5747 5747 5746 5745 5744 5741 5739 5738 5735 5735 5733 5731 5730 5729 5726 5724
5732 5736 5735 5747 5747 5752 5763 5776 5766 5765 5768 5768 5778 5761 5770 5767 5775 5777 5777 5778 5778 5774 5769 5764 5756 5752 5750 5749 5748 5746 5746 5744 5741 5743 5743 5742 5740 5738 5737 5734 5732 5731 5728 5728 5726 5724 5723 5721 5718
5739 5736 5734 5742 5739 5744 5763 5760 5769 5766 5763 5777 5774 5755 5754 5768 5769 5771 5771 5768 5767 5764 5764 5762 5757 5752 5748 5744 5743 5742 5742 5741 5739 5739 5738 5737 5736 5733 5731 5730 5727 5726 5723 5721 5720 5719 5717 5715 5712
5742 5725 5729 5739 5737 5744 5756 5746 5761 5769 5763 5764 5766 5762 5763 5765 5763 5760 5757 5757 5755 5755 5756 5756 5750 5748 5746 5744 5741 5738 5737 5736 5736 5735 5733 5732 5734 5732 5727 5727 5724 5721 5718 5714 5714 5712 5710 5708 5706
5729 5726 5736 5752 5749 5740 5748 5744 5755 5747 5751 5755 5754 5761 5759 5759 5756 5751 5747 5747 5746 5745 5749 5754 5751 5744 5742 5741 5738 5737 5736 5734 5733 5734 5731 5730 5734 5732 5729 5724 5718 5713 5711 5709 5707 5706 5703 5702 5702
5735 5721 5744 5742 5742 5743 5740 5742 5749 5742 5740 5752 5750 5756 5757 5753 5751 5749 5748 5746 5747 5744 5744 5747 5745 5742 5737 5736 5732 5731 5729 5730 5730 5730 5727 5726 5728 5725 5724 5721 5715 5710 5705 5702 5699 5697 5697 5698 5700
5716 5731 5731 5735 5737 5732 5730 5740 5739 5739 5743 5757 5757 5758 5759 5751 5750 5749 5749 5750 5747 5745 5741 5742 5742 5739 5738 5733 5731 5730 5728 5725 5724 5724 5721 5720 5721 5720 5716 5713 5710 5708 5701 5698 5694 5692 5691 5693 5694
5718 5724 5731 5731 5727 5726 5729 5728 5729 5734 5747 5749 5752 5747 5744 5750 5751 5753 5751 5750 5748 5744 5741 5740 5739 5736 5736 5731 5732 5731 5732 5728 5726 5721 5716 5714 5710 5708 5707 5705 5703 5698 5694 5690 5686 5682 5683 5684 5683
5724 5718 5720 5725 5724 5722 5718 5723 5726 5740 5744 5739 5744 5746 5745 5744 5748 5750 5750 5747 5745 5743 5741 5738 5736 5734 5733 5730 5728 5726 5724 5724 5722 5720 5716 5710 5706 5702 5700 5696 5694 5690 5685 5681 5676 5674 5672 5675 5674
5710 5698 5712 5719 5721 5715 5718 5711 5721 5740 5745 5742 5740 5744 5746 5745 5747 5747 5750 5746 5746 5743 5740 5735 5735 5732 5726 5724 5722 5717 5715 5712 5711 5710 5707 5705 5702 5698 5696 5689 5686 5683 5680 5671 5668 5666 5664 5667 5662
5693 5702 5692 5718 5713 5713 5699 5700 5737 5743 5741 5739 5741 5742 5743 5745 5746 5747 5749 5748 5746 5744 5739 5733 5731 5726 5722 5719 5716 5712 5709 5704 5701 5699 5693 5691 5692 5687 5686 5682 5679 5673 5668 5662 5657 5653 5651 5649 5646
5691 5681 5692 5702 5712 5699 5691 5697 5723 5726 5724 5724 5731 5738 5740 5743 5744 5745 5747 5745 5743 5742 5737 5729 5725 5722 5718 5715 5708 5701 5701 5699 5697 5696 5690 5684 5682 5679 5673 5672 5669 5661 5654 5649 5645 5641 5639 5635 5631
5680 5688 5694 5688 5698 5693 5685 5690 5704 5714 5716 5716 5725 5731 5738 5738 5741 5742 5742 5742 5739 5733 5730 5725 5719 5716 5713 5709 5704 5694 5691 5690 5688 5683 5679 5678 5677 5671 5668 5660 5658 5651 5643 5637 5633 5629 5626 5622 5621
5675 5670 5672 5680 5690 5682 5679 5682 5692 5702 5709 5714 5718 5725 5732 5740 5742 5743 5741 5739 5731 5727 5722 5718 5713 5711 5706 5702 5698 5687 5682 5682 5679 5675 5671 5670 5665 5663 5659 5652 5647 5641 5635 5629 5623 5616 5613 5610 5609
5661 5658 5663 5674 5679 5675 5671 5677 5687 5700 5704 5713 5717 5722 5729 5736 5741 5741 5740 5733 5726 5721 5716 5712 5709 5706 5701 5697 5694 5691 5686 5680 5677 5674 5666 5663 5658 5653 5650 5644 5639 5632 5625 5619 5611 5604 5600 5598 5601
5646 5643 5649 5651 5661 5666 5665 5670 5685 5708 5714 5718 5722 5725 5730 5733 5736 5739 5736 5723 5717 5717 5712 5708 5704 5700 5695 5690 5685 5678 5677 5674 5669 5665 5657 5659 5657 5649 5643 5640 5631 5625 5617 5610 5601 5593 5591 5591 5591
5633 5646 5647 5644 5637 5633 5661 5646 5676 5693 5706 5712 5719 5722 5723 5725 5726 5733 5728 5716 5708 5710 5708 5702 5699 5694 5690 5684 5679 5674 5671 5667 5666 5660 5655 5656 5652 5646 5636 5631 5627 5620 5613 5605 5597 5592 5592 5592 5589
5639 5644 5640 5632 5631 5634 5645 5638 5672 5694 5691 5701 5710 5703 5703 5712 5712 5712 5717 5707 5701 5700 5697 5695 5690 5685 5681 5677 5674 5672 5668 5666 5662 5657 5651 5649 5644 5640 5632 5626 5624 5619 5612 5605 5598 5592 5592 5593 5590
5642 5629 5626 5624 5621 5615 5645 5637 5660 5673 5685 5693 5697 5696 5692 5691 5698 5701 5702 5697 5690 5686 5688 5685 5681 5678 5673 5671 5668 5666 5662 5658 5653 5647 5642 5639 5631 5628 5625 5623 5622 5617 5611 5602 5598 5594 5590 5591 5591
5627 5615 5599 5601 5609 5617 5650 5631 5655 5680 5671 5673 5679 5681 5682 5682 5686 5686 5683 5680 5678 5674 5675 5676 5671 5670 5667 5664 5662 5660 5655 5652 5645 5641 5634 5628 5623 5619 5618 5619 5617 5613 5610 5607 5602 5597 5591 5590 5589
5625 5615 5598 5593 5608 5620 5623 5613 5643 5668 5664 5660 5665 5667 5670 5670 5674 5673 5670 5670 5670 5667 5662 5665 5662 5661 5659 5653 5649 5647 5643 5637 5633 5629 5626 5623 5620 5618 5615 5614 5612 5609 5608 5606 5602 5602 5597 5594 5592
5617 5597 5622 5599 5612 5604 5616 5633 5650 5656 5653 5649 5650 5650 5654 5658 5658 5658 5661 5661 5663 5655 5652 5657 5656 5654 5650 5646 5642 5638 5633 5631 5630 5626 5622 5620 5618 5613 5611 5608 5607 5605 5604 5605 5602 5599 5596 5594 5591
5591 5611 5587 5585 5566 5579 5613 5630 5632 5635 5643 5640 5635 5634 5640 5642 5635 5646 5652 5653 5656 5650 5645 5648 5648 5648 5644 5641 5640 5634 5630 5629 5626 5621 5614 5610 5606 5604 5603 5602 5600 5597 5598 5602 5601 5598 5596 5592 5590
5572 5578 5587 5579 5583 5595 5604 5631 5665 5650 5638 5630 5626 5625 5626 5619 5626 5640 5643 5645 5647 5640 5638 5639 5638 5640 5639 5637 5633 5626 5622 5620 5617 5613 5606 5604 5602 5598 5595 5594 5592 5590 5591 5595 5596 5596 5594 5591 5590
5540 5522 5532 5538 5572 5592 5608 5629 5644 5640 5620 5616 5612 5611 5614 5608 5622 5629 5633 5635 5634 5632 5633 5634 5634 5635 5633 5629 5625 5620 5615 5612 5607 5604 5599 5597 5594 5592 5588 5586 5583 5584 5586 5592 5594 5592 5593 5589 5585